Flag Weather past 2 weeks in Yellowknife, Northwest Territories, Canada

Now
-17 °F

Clear.


Feels Like: -34 °F
Forecast: -16 / -13 °F
Wind: 8 mph from North

Location: Yellowknife

Current Time: Nov 23, 2014 at 8:18:27 PM

Latest Report: Nov 23, 2014 at 8:00 PM


Visibility: 15 mi

Pressure: 30.03 "Hg

Humidity: 76%

Dew point: -22 °F

Location of YellowknifeLocation

Historic Weather in Yellowknife — Graph

°F

Yellowknife temperature yesterday

Maximum temperature yesterday: -11 °F (at 1:00 PM)
Minimum temperature yesterday: -24 °F (at 12:00 AM)
Average temperature yesterday: -17 °F

Past Weeks' High & Low Weather Summary

 TemperatureHumidityPressure
High23 °F (Nov 16, 10:00 PM)100% (Nov 17, 12:00 AM)30.97 "Hg (Nov 17, 12:00 AM)
Low-24 °F (Nov 22, 12:00 AM)67% (Nov 12, 1:00 PM)29.62 "Hg (Nov 20, 3:00 PM)
Average4 °F84%30.31 "Hg
* Reported Nov 8 7:00 PM — Nov 23 7:00 PM, Yellowknife, Weather by CustomWeather, © 2014

Note: Actual official high and low records may vary slightly from our data, if they occured in-between our weather recording intervals... More about our weather records

Advertising

Yellowknife weather history for previous 24 hours

 ConditionsComfort  
Time TempWeatherWind HumidityBarometerVisibility
7:00 PM
Nov 23
-15 °FPassing clouds.8 mph76%30.01 "Hg15 mi
6:00 PM-15 °FPassing clouds.7 mph76%30.01 "Hg15 mi
5:00 PM-15 °FPassing clouds.7 mph76%29.99 "Hg15 mi
4:00 PM-11 °FPassing clouds.8 mph76%29.97 "Hg15 mi
3:00 PM-11 °FPassing clouds.6 mph84%29.96 "Hg15 mi
2:00 PM-9 °FPassing clouds.7 mph77%29.95 "Hg15 mi
1:00 PM-8 °FBroken clouds.9 mph77%29.94 "Hg15 mi
12:00 PM-6 °FLight snow. Broken clouds.7 mph70%29.95 "Hg8 mi
11:00 AM-8 °FLight snow. Broken clouds.9 mph77%29.93 "Hg10 mi
10:00 AM-8 °FLight snow. Broken clouds.6 mph77%29.93 "Hg5 mi
9:00 AM-8 °FLight snow. Mostly cloudy.7 mph77%29.93 "Hg3 mi
8:00 AM-8 °FLight snow. Mostly cloudy.6 mph77%29.93 "Hg4 mi
7:00 AM-8 °FLight snow. Mostly cloudy.6 mph77%29.94 "Hg3 mi
6:00 AM-9 °FLight snow. Mostly cloudy.3 mph84%29.94 "Hg8 mi
5:00 AM-9 °FLight snow. Mostly cloudy.5 mph84%29.96 "Hg8 mi
4:00 AM-8 °FLight snow. Mostly cloudy.5 mph77%29.95 "Hg8 mi
3:00 AM-9 °FLight snow. Mostly cloudy.5 mph84%29.96 "Hg2 mi
2:00 AM-9 °FLight snow. Mostly cloudy.6 mph77%29.96 "Hg2 mi
1:51 AM-9 °FLight snow. Mostly cloudy.7 mph77%29.96 "Hg2 mi
1:00 AM-9 °FLight snow. Mostly cloudy.6 mph77%29.96 "Hg5 mi
12:00 AM-11 °FLight snow. Mostly cloudy.3 mph76%29.96 "Hg10 mi
11:00 PM
Nov 22
-11 °FOvercast.5 mph76%29.96 "Hg15 mi
10:00 PM-11 °FOvercast.6 mph76%29.96 "Hg15 mi
9:00 PM-13 °FOvercast.5 mph76%29.96 "Hg15 mi
8:00 PM-13 °FPassing clouds.3 mph76%29.96 "Hg15 mi
Weather by CustomWeather, © 2014

See weather overviewHow to use our weather pages